| time (UTC) | temp C | wind direction | speed KPH | gust KPH | rain 1hr cm | rain 24hr cm | rain mn cm | humidity % | barometer mb |
| 20260903133103 | 24 | 319 | 0.0 | 1.6 | 0.00 | 0.00 | 0.00 | 100 | 1017.8 |
| 20260903131606 | 23 | 0 | 0.0 | 1.6 | 0.00 | 0.00 | 0.00 | 100 | 1017.8 |
| 20260903124610 | 23 | 0 | 0.0 | 1.6 | 0.00 | 0.00 | 0.00 | 100 | 1018.6 |
| 20260903123104 | 23 | 0 | 0.0 | 1.6 | 0.00 | 0.00 | 0.00 | 100 | 1018.6 |
| 20260903121615 | 22 | 0 | 0.0 | 0.0 | 0.00 | 0.00 | 0.00 | 100 | 1018.5 |
| 20260903120110 | 22 | 0 | 0.0 | 0.0 | 0.00 | 0.00 | 0.00 | 100 | 1018.6 |
| 20260903114601 | 22 | 0 | 0.0 | 0.0 | 0.00 | 0.00 | 0.00 | 100 | 1018.4 |
| 20260903113144 | 22 | 0 | 0.0 | 1.6 | 0.00 | 0.00 | 0.00 | 100 | 1018.2 |
| 20260903111602 | 22 | 0 | 0.0 | 1.6 | 0.00 | 0.00 | 0.00 | 100 | 1018.0 |
| 20260903110105 | 22 | 0 | 0.0 | 1.6 | 0.00 | 0.00 | 0.00 | 100 | 1017.7 |
| 20260903104611 | 21 | 0 | 0.0 | 1.6 | 0.00 | 0.00 | 0.00 | 100 | 1017.7 |
| 20260903103106 | 21 | 0 | 0.0 | 1.6 | 0.00 | 0.00 | 0.00 | 100 | 1017.5 |
| 20260903101603 | 22 | 0 | 0.0 | 0.0 | 0.00 | 0.00 | 0.00 | 100 | 1017.2 |
| 20260903094601 | 22 | 0 | 0.0 | 1.6 | 0.00 | 0.00 | 0.00 | 100 | 1017.2 |
| 20260903093106 | 22 | 0 | 0.0 | 0.0 | 0.00 | 0.00 | 0.00 | 100 | 1017.3 |
| 20260903091602 | 22 | 0 | 0.0 | 1.6 | 0.00 | 0.00 | 0.00 | 100 | 1017.3 |
| 20260903090058 | 22 | 285 | 0.0 | 1.6 | 0.00 | 0.00 | 0.00 | 100 | 1017.7 |
| 20260903084609 | 22 | 335 | 1.6 | 4.8 | 0.00 | 0.00 | 0.00 | 100 | 1017.9 |
| 20260903083105 | 21 | 295 | 0.0 | 3.2 | 0.00 | 0.00 | 0.00 | 100 | 1017.8 |
| 20260903081601 | 21 | 0 | 0.0 | 0.0 | 0.00 | 0.00 | 0.00 | 100 | 1017.0 |
| 20260903074603 | 21 | 0 | 0.0 | 0.0 | 0.00 | 0.08 | 0.00 | 100 | 1016.7 |
| 20260903073106 | 21 | 0 | 0.0 | 0.0 | 0.00 | 0.08 | 0.00 | 100 | 1016.6 |
| 20260903071613 | 22 | 0 | 0.0 | 0.0 | 0.00 | 0.08 | 0.00 | 100 | 1016.7 |
| 20260903064603 | 22 | 0 | 0.0 | 0.0 | 0.00 | 0.20 | 0.00 | 100 | 1016.4 |
| 20260903063103 | 22 | 0 | 0.0 | 0.0 | 0.00 | 0.20 | 0.00 | 100 | 1016.6 |
| 20260903061606 | 22 | 0 | 0.0 | 0.0 | 0.00 | 0.20 | 0.00 | 100 | 1016.8 |
| 20260903060101 | 22 | 0 | 0.0 | 0.0 | 0.00 | 0.20 | 0.00 | 100 | 1017.2 |
| 20260903054605 | 22 | 0 | 0.0 | 0.0 | 0.00 | 0.94 | 0.00 | 100 | 1017.2 |
| 20260903053102 | 22 | 0 | 0.0 | 0.0 | 0.00 | 0.94 | 0.00 | 100 | 1017.3 |
| 20260903051617 | 22 | 0 | 0.0 | 1.6 | 0.00 | 0.94 | 0.00 | 99 | 1017.7 |
| 20260903050115 | 22 | 0 | 0.0 | 0.0 | 0.00 | 0.94 | 0.00 | 100 | 1017.7 |
| 20260903044602 | 22 | 0 | 0.0 | 0.0 | 0.00 | 0.94 | 0.00 | 99 | 1018.0 |
| 20260903043208 | 22 | 0 | 0.0 | 0.0 | 0.00 | 0.94 | 0.00 | 100 | 1017.9 |
| 20260903041555 | 22 | 0 | 0.0 | 0.0 | 0.00 | 0.94 | 0.00 | 99 | 1017.7 |
| 20260903040106 | 22 | 0 | 0.0 | 0.0 | 0.00 | 0.94 | 0.00 | 100 | 1017.5 |
| 20260903034559 | 22 | 0 | 0.0 | 0.0 | 0.00 | 0.94 | 0.94 | 100 | 1017.6 |
| 20260903033057 | 22 | 0 | 0.0 | 0.0 | 0.00 | 0.94 | 0.94 | 99 | 1017.6 |
| 20260903031604 | 22 | 0 | 0.0 | 0.0 | 0.00 | 0.94 | 0.94 | 100 | 1017.7 |
| 20260903030103 | 22 | 0 | 0.0 | 0.0 | 0.00 | 0.94 | 0.94 | 99 | 1018.0 |
| 20260903024605 | 22 | 0 | 0.0 | 0.0 | 0.00 | 0.94 | 0.94 | 99 | 1017.8 |
| 20260903023132 | 22 | 0 | 0.0 | 0.0 | 0.00 | 0.94 | 0.94 | 99 | 1017.4 |
| 20260903021604 | 22 | 0 | 0.0 | 0.0 | 0.00 | 0.94 | 0.94 | 99 | 1017.6 |
| 20260903020053 | 22 | 0 | 0.0 | 0.0 | 0.00 | 0.94 | 0.94 | 99 | 1017.5 |
| 20260903014604 | 22 | 0 | 0.0 | 0.0 | 0.00 | 0.94 | 0.94 | 99 | 1017.7 |
| 20260903013109 | 23 | 0 | 0.0 | 0.0 | 0.00 | 0.94 | 0.94 | 99 | 1018.1 |
| 20260903011552 | 23 | 0 | 0.0 | 0.0 | 0.00 | 0.94 | 0.94 | 99 | 1017.9 |
| 20260903010106 | 23 | 0 | 0.0 | 0.0 | 0.00 | 0.94 | 0.94 | 98 | 1017.9 |
| 20260903004606 | 23 | 0 | 0.0 | 0.0 | 0.00 | 0.94 | 0.94 | 98 | 1017.5 |
| 20260903003100 | 23 | 0 | 0.0 | 0.0 | 0.00 | 0.94 | 0.94 | 98 | 1017.5 |
| 20260903001555 | 23 | 0 | 0.0 | 0.0 | 0.00 | 0.94 | 0.94 | 98 | 1017.5 |
| 20260902234616 | 23 | 0 | 0.0 | 0.0 | 0.00 | 0.94 | 0.94 | 97 | 1017.6 |
| 20260902233059 | 24 | 0 | 0.0 | 0.0 | 0.00 | 0.94 | 0.94 | 96 | 1017.2 |
| 20260902231626 | 24 | 0 | 0.0 | 1.6 | 0.00 | 0.94 | 0.94 | 95 | 1017.3 |
| 20260902230107 | 25 | 0 | 0.0 | 1.6 | 0.00 | 0.94 | 0.94 | 95 | 1017.4 |
| 20260902224612 | 25 | 0 | 0.0 | 0.0 | 0.00 | 0.94 | 0.94 | 95 | 1017.7 |
| 20260902223107 | 25 | 0 | 0.0 | 0.0 | 0.00 | 0.94 | 0.94 | 94 | 1017.7 |
| 20260902221608 | 25 | 326 | 0.0 | 1.6 | 0.00 | 0.94 | 0.94 | 94 | 1017.8 |
| 20260902220107 | 25 | 0 | 0.0 | 1.6 | 0.00 | 0.94 | 0.94 | 93 | 1017.6 |
| 20260902214604 | 25 | 0 | 0.0 | 0.0 | 0.00 | 0.94 | 0.94 | 94 | 1017.5 |
| 20260902213118 | 25 | 0 | 0.0 | 1.6 | 0.00 | 0.94 | 0.94 | 94 | 1017.4 |
| 20260902211557 | 25 | 308 | 0.0 | 3.2 | 0.00 | 0.94 | 0.94 | 95 | 1017.6 |
| 20260902210106 | 25 | 321 | 0.0 | 6.4 | 0.00 | 0.94 | 0.94 | 95 | 1017.5 |
| 20260902204602 | 24 | 228 | 0.0 | 8.0 | 0.00 | 0.94 | 0.94 | 96 | 1016.5 |
| 20260902203107 | 24 | 104 | 3.2 | 6.4 | 0.00 | 0.94 | 0.94 | 96 | 1015.7 |
| 20260902201608 | 24 | 143 | 0.0 | 4.8 | 0.00 | 0.94 | 0.94 | 96 | 1017.5 |
| 20260902200135 | 25 | 334 | 0.0 | 1.6 | 0.00 | 0.94 | 0.94 | 94 | 1019.1 |
| 20260902194601 | 25 | 335 | 0.0 | 4.8 | 0.00 | 0.94 | 0.94 | 93 | 1020.0 |
| 20260902193108 | 25 | 319 | 0.0 | 4.8 | 0.00 | 0.94 | 0.94 | 92 | 1019.6 |
| 20260902191614 | 25 | 0 | 0.0 | 8.0 | 0.00 | 0.94 | 0.94 | 92 | 1019.1 |
| 20260902190115 | 26 | 356 | 0.0 | 8.0 | 0.00 | 0.94 | 0.94 | 91 | 1019.7 |
| 20260902184602 | 26 | 307 | 1.6 | 9.7 | 0.00 | 0.94 | 0.94 | 89 | 1019.3 |
| 20260902183119 | 26 | 165 | 1.6 | 9.7 | 0.00 | 0.94 | 0.94 | 89 | 1019.0 |
| 20260902181606 | 26 | 0 | 0.0 | 3.2 | 0.00 | 0.94 | 0.94 | 89 | 1019.3 |
| 20260902180126 | 26 | 353 | 0.0 | 4.8 | 0.00 | 0.94 | 0.94 | 89 | 1019.5 |
| 20260902174614 | 27 | 296 | 0.0 | 9.7 | 0.00 | 0.94 | 0.94 | 89 | 1019.2 |
| 20260902173106 | 27 | 267 | 3.2 | 9.7 | 0.00 | 0.94 | 0.94 | 87 | 1019.1 |
| 20260902171608 | 27 | 97 | 0.0 | 4.8 | 0.00 | 0.94 | 0.94 | 90 | 1018.9 |
| 20260902170103 | 27 | 0 | 0.0 | 6.4 | 0.00 | 0.94 | 0.94 | 91 | 1018.8 |
| 20260902164605 | 26 | 250 | 1.6 | 6.4 | 0.00 | 0.94 | 0.94 | 89 | 1019.1 |
| 20260902163104 | 26 | 245 | 0.0 | 6.4 | 0.00 | 0.94 | 0.94 | 89 | 1019.0 |
| 20260902161605 | 27 | 294 | 1.6 | 11.3 | 0.00 | 0.94 | 0.94 | 88 | 1018.8 |
| 20260902160108 | 26 | 0 | 0.0 | 8.0 | 0.00 | 0.94 | 0.94 | 91 | 1018.9 |
| 20260902154607 | 26 | 254 | 1.6 | 8.0 | 0.00 | 0.94 | 0.94 | 90 | 1019.1 |
| 20260902153100 | 26 | 284 | 3.2 | 8.0 | 0.00 | 0.94 | 0.94 | 91 | 1019.2 |
| 20260902151559 | 26 | 247 | 0.0 | 4.8 | 0.00 | 0.94 | 0.94 | 90 | 1019.2 |
| 20260902144603 | 27 | 135 | 1.6 | 9.7 | 0.00 | 0.94 | 0.94 | 91 | 1018.9 |
| 20260902143105 | 26 | 89 | 3.2 | 6.4 | 0.00 | 0.94 | 0.94 | 92 | 1018.8 |
| 20260902141602 | 25 | 304 | 1.6 | 9.7 | 0.00 | 0.94 | 0.94 | 94 | 1018.8 |
| 20260902140104 | 25 | 349 | 0.0 | 3.2 | 0.00 | 0.94 | 0.94 | 96 | 1018.8 |
| 20260902134605 | 25 | 326 | 3.2 | 9.7 | 0.00 | 0.94 | 0.94 | 98 | 1018.3 |